owner,sensor,date,latitude,longitude,vertical_datum,wind_speed,wind_to_direction,wind_speed_of_gust,qcFlag 
DISL,ioos:station:DISL:BSCA:1,2016-11-01T00:00:00Z,30.3288,-87.8293,0.0,1.3,221.0,99.0,'11111222,11111222,11144222' 
DISL,ioos:station:DISL:BSCA:1,2016-11-01T00:30:00Z,30.3288,-87.8293,0.0,1.5,223.0,99.0,'11111222,11111222,11144222' 
DISL,ioos:station:DISL:BSCA:1,2016-11-01T01:00:00Z,30.3288,-87.8293,0.0,2.3,218.0,99.0,'11111222,11111222,11144222' 
DISL,ioos:station:DISL:BSCA:1,2016-11-01T01:30:00Z,30.3288,-87.8293,0.0,2.0,205.0,99.0,'11111222,11111222,11144222' 
DISL,ioos:station:DISL:BSCA:1,2016-11-01T02:00:00Z,30.3288,-87.8293,0.0,1.7,200.0,99.0,'11111222,11111222,11144222' 
DISL,ioos:station:DISL:BSCA:1,2016-11-01T02:30:00Z,30.3288,-87.8293,0.0,1.2,69.0,99.0,'11111222,11111222,11144222' 
DISL,ioos:station:DISL:BSCA:1,2016-11-01T03:00:00Z,30.3288,-87.8293,0.0,0.9,8.0,99.0,'11111222,11111222,11144222' 
DISL,ioos:station:DISL:BSCA:1,2016-11-01T03:30:00Z,30.3288,-87.8293,0.0,1.5,60.0,99.0,'11111222,11111222,11144222' 
DISL,ioos:station:DISL:BSCA:1,2016-11-01T04:00:00Z,30.3288,-87.8293,0.0,1.1,67.0,99.0,'11111222,11111222,11144222' 
DISL,ioos:station:DISL:BSCA:1,2016-11-01T04:30:00Z,30.3288,-87.8293,0.0,1.3,88.0,99.0,'11111222,11111222,11144222' 
DISL,ioos:station:DISL:BSCA:1,2016-11-01T05:00:00Z,30.3288,-87.8293,0.0,1.2,60.0,99.0,'11111222,11111222,11144222' 
DISL,ioos:station:DISL:BSCA:1,2016-11-01T05:30:00Z,30.3288,-87.8293,0.0,1.6,48.0,99.0,'11111222,11111222,11144222' 
DISL,ioos:station:DISL:BSCA:1,2016-11-01T06:30:00Z,30.3288,-87.8293,0.0,1.2,16.0,99.0,'11111222,11111222,11144222' 
DISL,ioos:station:DISL:BSCA:1,2016-11-01T07:00:00Z,30.3288,-87.8293,0.0,1.5,38.0,99.0,'11111222,11111222,11144222' 
DISL,ioos:station:DISL:BSCA:1,2016-11-01T07:30:00Z,30.3288,-87.8293,0.0,2.2,61.0,99.0,'11111222,11111222,11144222' 
DISL,ioos:station:DISL:BSCA:1,2016-11-01T08:00:00Z,30.3288,-87.8293,0.0,2.2,56.0,99.0,'11111222,11111222,11144222' 
DISL,ioos:station:DISL:BSCA:1,2016-11-01T08:30:00Z,30.3288,-87.8293,0.0,2.1,54.0,99.0,'11111222,11111222,11144222' 
DISL,ioos:station:DISL:BSCA:1,2016-11-01T09:00:00Z,30.3288,-87.8293,0.0,2.6,47.0,99.0,'11111222,11111222,11144222' 
DISL,ioos:station:DISL:BSCA:1,2016-11-01T09:30:00Z,30.3288,-87.8293,0.0,3.1,48.0,99.0,'11111222,11111222,11144222' 
DISL,ioos:station:DISL:BSCA:1,2016-11-01T10:00:00Z,30.3288,-87.8293,0.0,3.1,52.0,99.0,'11111222,11111222,11144222' 
DISL,ioos:station:DISL:BSCA:1,2016-11-01T10:30:00Z,30.3288,-87.8293,0.0,3.0,55.0,99.0,'11111222,11111222,11144222' 
DISL,ioos:station:DISL:BSCA:1,2016-11-01T11:00:00Z,30.3288,-87.8293,0.0,3.7,54.0,99.0,'11111222,11111222,11144222' 
DISL,ioos:station:DISL:BSCA:1,2016-11-01T11:30:00Z,30.3288,-87.8293,0.0,3.8,54.0,99.0,'11111222,11111222,11144222' 
DISL,ioos:station:DISL:BSCA:1,2016-11-01T12:00:00Z,30.3288,-87.8293,0.0,4.3,57.0,99.0,'11111222,11111222,11144222' 
DISL,ioos:station:DISL:BSCA:1,2016-11-01T12:30:00Z,30.3288,-87.8293,0.0,4.9,55.0,99.0,'11111222,11111222,11144222' 
DISL,ioos:station:DISL:BSCA:1,2016-11-01T13:00:00Z,30.3288,-87.8293,0.0,5.1,57.0,99.0,'11111222,11111222,11144222' 
DISL,ioos:station:DISL:BSCA:1,2016-11-01T13:30:00Z,30.3288,-87.8293,0.0,4.8,59.0,99.0,'11111222,11111222,11144222' 
DISL,ioos:station:DISL:BSCA:1,2016-11-01T14:00:00Z,30.3288,-87.8293,0.0,5.1,57.0,99.0,'11111222,11111222,11144222' 
DISL,ioos:station:DISL:BSCA:1,2016-11-01T14:30:00Z,30.3288,-87.8293,0.0,5.0,58.0,99.0,'11111222,11111222,11144222' 
DISL,ioos:station:DISL:BSCA:1,2016-11-01T15:00:00Z,30.3288,-87.8293,0.0,4.6,66.0,99.0,'11111222,11111222,11144222' 
DISL,ioos:station:DISL:BSCA:1,2016-11-01T15:30:00Z,30.3288,-87.8293,0.0,4.3,75.0,99.0,'11111222,11111222,11144222' 
DISL,ioos:station:DISL:BSCA:1,2016-11-01T16:00:00Z,30.3288,-87.8293,0.0,4.0,98.0,99.0,'11111222,11111222,11144222' 
DISL,ioos:station:DISL:BSCA:1,2016-11-01T16:30:00Z,30.3288,-87.8293,0.0,4.6,111.0,99.0,'11111222,11111222,11144222' 
DISL,ioos:station:DISL:BSCA:1,2016-11-01T17:00:00Z,30.3288,-87.8293,0.0,5.2,119.0,99.0,'11111222,11111222,11144222' 
DISL,ioos:station:DISL:BSCA:1,2016-11-01T17:30:00Z,30.3288,-87.8293,0.0,5.7,113.0,99.0,'11111222,11111222,11144222' 
DISL,ioos:station:DISL:BSCA:1,2016-11-01T18:00:00Z,30.3288,-87.8293,0.0,5.4,118.0,99.0,'11111222,11111222,11144222' 
DISL,ioos:station:DISL:BSCA:1,2016-11-01T18:30:00Z,30.3288,-87.8293,0.0,6.0,118.0,99.0,'11111222,11111222,11144222' 
DISL,ioos:station:DISL:BSCA:1,2016-11-01T19:00:00Z,30.3288,-87.8293,0.0,5.9,138.0,99.0,'11111222,11111222,11144222' 
DISL,ioos:station:DISL:BSCA:1,2016-11-01T19:30:00Z,30.3288,-87.8293,0.0,6.3,132.0,99.0,'11111222,11111222,11144222' 
DISL,ioos:station:DISL:BSCA:1,2016-11-01T20:00:00Z,30.3288,-87.8293,0.0,5.7,140.0,99.0,'11111222,11111222,11144222' 
DISL,ioos:station:DISL:BSCA:1,2016-11-01T20:30:00Z,30.3288,-87.8293,0.0,6.4,139.0,99.0,'11111222,11111222,11144222' 
DISL,ioos:station:DISL:BSCA:1,2016-11-01T21:00:00Z,30.3288,-87.8293,0.0,6.0,130.0,99.0,'11111222,11111222,11144222' 
DISL,ioos:station:DISL:BSCA:1,2016-11-01T21:30:00Z,30.3288,-87.8293,0.0,7.4,123.0,99.0,'11111222,11111222,11144222' 
DISL,ioos:station:DISL:BSCA:1,2016-11-01T22:00:00Z,30.3288,-87.8293,0.0,7.1,135.0,99.0,'11111222,11111222,11144222' 
DISL,ioos:station:DISL:BSCA:1,2016-11-01T22:30:00Z,30.3288,-87.8293,0.0,5.9,136.0,99.0,'11111222,11111222,11144222' 
DISL,ioos:station:DISL:BSCA:1,2016-11-01T23:00:00Z,30.3288,-87.8293,0.0,5.7,135.0,99.0,'11111222,11111222,11144222' 
DISL,ioos:station:DISL:BSCA:1,2016-11-01T23:30:00Z,30.3288,-87.8293,0.0,5.3,139.0,99.0,'11111222,11111222,11144222' 
DISL,ioos:station:DISL:BSCA:1,2016-11-02T00:00:00Z,30.3288,-87.8293,0.0,4.5,119.0,99.0,'11111222,11111222,11144222' 
DISL,ioos:station:DISL:BSCA:1,2016-11-02T00:30:00Z,30.3288,-87.8293,0.0,3.4,107.0,99.0,'11111222,11111222,11144222' 
DISL,ioos:station:DISL:BSCA:1,2016-11-02T01:00:00Z,30.3288,-87.8293,0.0,2.8,93.0,99.0,'11111222,11111222,11144222' 
DISL,ioos:station:DISL:BSCA:1,2016-11-02T01:30:00Z,30.3288,-87.8293,0.0,2.6,96.0,99.0,'11111222,11111222,11144222' 
DISL,ioos:station:DISL:BSCA:1,2016-11-02T02:00:00Z,30.3288,-87.8293,0.0,2.8,100.0,99.0,'11111222,11111222,11144222' 
DISL,ioos:station:DISL:BSCA:1,2016-11-02T02:30:00Z,30.3288,-87.8293,0.0,3.1,95.0,99.0,'11111222,11111222,11144222' 
DISL,ioos:station:DISL:BSCA:1,2016-11-02T03:00:00Z,30.3288,-87.8293,0.0,3.1,92.0,99.0,'11111222,11111222,11144222' 
DISL,ioos:station:DISL:BSCA:1,2016-11-02T03:30:00Z,30.3288,-87.8293,0.0,2.7,101.0,99.0,'11111222,11111222,11144222' 
DISL,ioos:station:DISL:BSCA:1,2016-11-02T04:00:00Z,30.3288,-87.8293,0.0,2.7,90.0,99.0,'11111222,11111222,11144222' 
DISL,ioos:station:DISL:BSCA:1,2016-11-02T04:30:00Z,30.3288,-87.8293,0.0,2.9,98.0,99.0,'11111222,11111222,11144222' 
DISL,ioos:station:DISL:BSCA:1,2016-11-02T05:00:00Z,30.3288,-87.8293,0.0,2.6,91.0,99.0,'11111222,11111222,11144222' 
DISL,ioos:station:DISL:BSCA:1,2016-11-02T05:30:00Z,30.3288,-87.8293,0.0,2.3,77.0,99.0,'11111222,11111222,11144222' 
DISL,ioos:station:DISL:BSCA:1,2016-11-02T06:00:00Z,30.3288,-87.8293,0.0,2.2,74.0,99.0,'11111222,11111222,11144222' 
DISL,ioos:station:DISL:BSCA:1,2016-11-02T06:30:00Z,30.3288,-87.8293,0.0,2.0,69.0,99.0,'11111222,11111222,11144222' 
DISL,ioos:station:DISL:BSCA:1,2016-11-02T07:00:00Z,30.3288,-87.8293,0.0,2.1,73.0,99.0,'11111222,11111222,11144222' 
DISL,ioos:station:DISL:BSCA:1,2016-11-02T07:30:00Z,30.3288,-87.8293,0.0,2.8,78.0,99.0,'11111222,11111222,11144222' 
DISL,ioos:station:DISL:BSCA:1,2016-11-02T08:00:00Z,30.3288,-87.8293,0.0,3.6,54.0,99.0,'11111222,11111222,11144222' 
DISL,ioos:station:DISL:BSCA:1,2016-11-02T08:30:00Z,30.3288,-87.8293,0.0,3.5,65.0,99.0,'11111222,11111222,11144222' 
DISL,ioos:station:DISL:BSCA:1,2016-11-02T09:00:00Z,30.3288,-87.8293,0.0,3.8,56.0,99.0,'11111222,11111222,11144222' 
DISL,ioos:station:DISL:BSCA:1,2016-11-02T09:30:00Z,30.3288,-87.8293,0.0,4.9,67.0,99.0,'11111222,11111222,11144222' 
DISL,ioos:station:DISL:BSCA:1,2016-11-02T10:00:00Z,30.3288,-87.8293,0.0,5.3,74.0,99.0,'11111222,11111222,11144222' 
DISL,ioos:station:DISL:BSCA:1,2016-11-02T10:30:00Z,30.3288,-87.8293,0.0,5.1,71.0,99.0,'11111222,11111222,11144222' 
DISL,ioos:station:DISL:BSCA:1,2016-11-02T11:00:00Z,30.3288,-87.8293,0.0,5.4,73.0,99.0,'11111222,11111222,11144222' 
DISL,ioos:station:DISL:BSCA:1,2016-11-02T11:30:00Z,30.3288,-87.8293,0.0,5.0,67.0,99.0,'11111222,11111222,11144222' 
DISL,ioos:station:DISL:BSCA:1,2016-11-02T12:00:00Z,30.3288,-87.8293,0.0,5.3,63.0,99.0,'11111222,11111222,11144222' 
DISL,ioos:station:DISL:BSCA:1,2016-11-02T12:30:00Z,30.3288,-87.8293,0.0,5.5,60.0,99.0,'11111222,11111222,11144222' 
DISL,ioos:station:DISL:BSCA:1,2016-11-02T13:00:00Z,30.3288,-87.8293,0.0,6.1,65.0,99.0,'11111222,11111222,11144222' 
DISL,ioos:station:DISL:BSCA:1,2016-11-02T13:30:00Z,30.3288,-87.8293,0.0,5.3,75.0,99.0,'11111222,11111222,11144222' 
DISL,ioos:station:DISL:BSCA:1,2016-11-02T14:00:00Z,30.3288,-87.8293,0.0,5.9,88.0,99.0,'11111222,11111222,11144222' 
DISL,ioos:station:DISL:BSCA:1,2016-11-02T14:30:00Z,30.3288,-87.8293,0.0,6.1,93.0,99.0,'11111222,11111222,11144222' 
DISL,ioos:station:DISL:BSCA:1,2016-11-02T15:00:00Z,30.3288,-87.8293,0.0,6.8,105.0,99.0,'11111222,11111222,11144222' 
DISL,ioos:station:DISL:BSCA:1,2016-11-02T15:30:00Z,30.3288,-87.8293,0.0,7.0,107.0,99.0,'11111222,11111222,11144222' 
DISL,ioos:station:DISL:BSCA:1,2016-11-02T16:00:00Z,30.3288,-87.8293,0.0,7.3,113.0,99.0,'11111222,11111222,11144222' 
DISL,ioos:station:DISL:BSCA:1,2016-11-02T16:30:00Z,30.3288,-87.8293,0.0,6.8,117.0,99.0,'11111222,11111222,11144222' 
DISL,ioos:station:DISL:BSCA:1,2016-11-02T17:00:00Z,30.3288,-87.8293,0.0,6.8,124.0,99.0,'11111222,11111222,11144222' 
DISL,ioos:station:DISL:BSCA:1,2016-11-02T17:30:00Z,30.3288,-87.8293,0.0,6.3,132.0,99.0,'11111222,11111222,11144222' 
DISL,ioos:station:DISL:BSCA:1,2016-11-02T18:00:00Z,30.3288,-87.8293,0.0,6.4,136.0,99.0,'11111222,11111222,11144222' 
DISL,ioos:station:DISL:BSCA:1,2016-11-02T18:30:00Z,30.3288,-87.8293,0.0,6.4,139.0,99.0,'11111222,11111222,11144222' 
DISL,ioos:station:DISL:BSCA:1,2016-11-02T19:00:00Z,30.3288,-87.8293,0.0,6.0,132.0,99.0,'11111222,11111222,11144222' 
DISL,ioos:station:DISL:BSCA:1,2016-11-02T19:30:00Z,30.3288,-87.8293,0.0,5.6,141.0,99.0,'11111222,11111222,11144222' 
DISL,ioos:station:DISL:BSCA:1,2016-11-02T20:00:00Z,30.3288,-87.8293,0.0,5.5,138.0,99.0,'11111222,11111222,11144222' 
DISL,ioos:station:DISL:BSCA:1,2016-11-02T20:30:00Z,30.3288,-87.8293,0.0,5.8,137.0,99.0,'11111222,11111222,11144222' 
DISL,ioos:station:DISL:BSCA:1,2016-11-02T21:00:00Z,30.3288,-87.8293,0.0,5.8,135.0,99.0,'11111222,11111222,11144222' 
DISL,ioos:station:DISL:BSCA:1,2016-11-02T21:30:00Z,30.3288,-87.8293,0.0,4.8,134.0,99.0,'11111222,11111222,11144222' 
DISL,ioos:station:DISL:BSCA:1,2016-11-02T22:00:00Z,30.3288,-87.8293,0.0,4.5,123.0,99.0,'11111222,11111222,11144222' 
DISL,ioos:station:DISL:BSCA:1,2016-11-02T22:30:00Z,30.3288,-87.8293,0.0,3.3,102.0,99.0,'11111222,11111222,11144222' 
DISL,ioos:station:DISL:BSCA:1,2016-11-02T23:00:00Z,30.3288,-87.8293,0.0,3.2,110.0,99.0,'11111222,11111222,11144222' 
DISL,ioos:station:DISL:BSCA:1,2016-11-02T23:30:00Z,30.3288,-87.8293,0.0,2.8,112.0,99.0,'11111222,11111222,11144222' 
DISL,ioos:station:DISL:BSCA:1,2016-11-03T00:00:00Z,30.3288,-87.8293,0.0,1.8,90.0,99.0,'11111222,11111222,11144222' 
DISL,ioos:station:DISL:BSCA:1,2016-11-03T00:30:00Z,30.3288,-87.8293,0.0,1.4,61.0,99.0,'11111222,11111222,11144222' 
DISL,ioos:station:DISL:BSCA:1,2016-11-03T01:00:00Z,30.3288,-87.8293,0.0,1.3,76.0,99.0,'11111222,11111222,11144222' 
DISL,ioos:station:DISL:BSCA:1,2016-11-03T01:30:00Z,30.3288,-87.8293,0.0,2.0,72.0,99.0,'11111222,11111222,11144222' 
DISL,ioos:station:DISL:BSCA:1,2016-11-03T02:00:00Z,30.3288,-87.8293,0.0,2.1,70.0,99.0,'11111222,11111222,11144222' 
DISL,ioos:station:DISL:BSCA:1,2016-11-03T02:30:00Z,30.3288,-87.8293,0.0,2.7,66.0,99.0,'11111222,11111222,11144222' 
DISL,ioos:station:DISL:BSCA:1,2016-11-03T03:00:00Z,30.3288,-87.8293,0.0,2.2,71.0,99.0,'11111222,11111222,11144222' 
DISL,ioos:station:DISL:BSCA:1,2016-11-03T03:30:00Z,30.3288,-87.8293,0.0,1.6,59.0,99.0,'11111222,11111222,11144222' 
DISL,ioos:station:DISL:BSCA:1,2016-11-03T04:00:00Z,30.3288,-87.8293,0.0,2.3,70.0,99.0,'11111222,11111222,11144222' 
DISL,ioos:station:DISL:BSCA:1,2016-11-03T04:30:00Z,30.3288,-87.8293,0.0,2.8,63.0,99.0,'11111222,11111222,11144222' 
DISL,ioos:station:DISL:BSCA:1,2016-11-03T05:00:00Z,30.3288,-87.8293,0.0,2.4,47.0,99.0,'11111222,11111222,11144222' 
DISL,ioos:station:DISL:BSCA:1,2016-11-03T05:30:00Z,30.3288,-87.8293,0.0,2.3,41.0,99.0,'11111222,11111222,11144222' 
DISL,ioos:station:DISL:BSCA:1,2016-11-03T06:00:00Z,30.3288,-87.8293,0.0,3.1,54.0,99.0,'11111222,11111222,11144222' 
DISL,ioos:station:DISL:BSCA:1,2016-11-03T06:30:00Z,30.3288,-87.8293,0.0,3.3,66.0,99.0,'11111222,11111222,11144222' 
DISL,ioos:station:DISL:BSCA:1,2016-11-03T07:00:00Z,30.3288,-87.8293,0.0,3.8,68.0,99.0,'11111222,11111222,11144222' 
DISL,ioos:station:DISL:BSCA:1,2016-11-03T07:30:00Z,30.3288,-87.8293,0.0,3.4,68.0,99.0,'11111222,11111222,11144222' 
DISL,ioos:station:DISL:BSCA:1,2016-11-03T08:00:00Z,30.3288,-87.8293,0.0,2.8,61.0,99.0,'11111222,11111222,11144222' 
DISL,ioos:station:DISL:BSCA:1,2016-11-03T08:30:00Z,30.3288,-87.8293,0.0,2.6,60.0,99.0,'11111222,11111222,11144222' 
DISL,ioos:station:DISL:BSCA:1,2016-11-03T09:00:00Z,30.3288,-87.8293,0.0,3.1,57.0,99.0,'11111222,11111222,11144222' 
DISL,ioos:station:DISL:BSCA:1,2016-11-03T09:30:00Z,30.3288,-87.8293,0.0,3.6,56.0,99.0,'11111222,11111222,11144222' 
DISL,ioos:station:DISL:BSCA:1,2016-11-03T10:00:00Z,30.3288,-87.8293,0.0,4.0,53.0,99.0,'11111222,11111222,11144222' 
DISL,ioos:station:DISL:BSCA:1,2016-11-03T10:30:00Z,30.3288,-87.8293,0.0,4.0,56.0,99.0,'11111222,11111222,11144222' 
DISL,ioos:station:DISL:BSCA:1,2016-11-03T11:00:00Z,30.3288,-87.8293,0.0,3.8,54.0,99.0,'11111222,11111222,11144222' 
DISL,ioos:station:DISL:BSCA:1,2016-11-03T11:30:00Z,30.3288,-87.8293,0.0,4.5,51.0,99.0,'11111222,11111222,11144222' 
DISL,ioos:station:DISL:BSCA:1,2016-11-03T12:00:00Z,30.3288,-87.8293,0.0,4.9,54.0,99.0,'11111222,11111222,11144222' 
DISL,ioos:station:DISL:BSCA:1,2016-11-03T12:30:00Z,30.3288,-87.8293,0.0,5.2,49.0,99.0,'11111222,11111222,11144222' 
DISL,ioos:station:DISL:BSCA:1,2016-11-03T13:00:00Z,30.3288,-87.8293,0.0,4.7,46.0,99.0,'11111222,11111222,11144222' 
DISL,ioos:station:DISL:BSCA:1,2016-11-03T13:30:00Z,30.3288,-87.8293,0.0,5.4,58.0,99.0,'11111222,11111222,11144222' 
DISL,ioos:station:DISL:BSCA:1,2016-11-03T14:00:00Z,30.3288,-87.8293,0.0,4.9,56.0,99.0,'11111222,11111222,11144222' 
DISL,ioos:station:DISL:BSCA:1,2016-11-03T14:30:00Z,30.3288,-87.8293,0.0,4.4,51.0,99.0,'11111222,11111222,11144222' 
DISL,ioos:station:DISL:BSCA:1,2016-11-03T15:00:00Z,30.3288,-87.8293,0.0,4.1,51.0,99.0,'11111222,11111222,11144222' 
DISL,ioos:station:DISL:BSCA:1,2016-11-03T15:30:00Z,30.3288,-87.8293,0.0,3.8,59.0,99.0,'11111222,11111222,11144222' 
DISL,ioos:station:DISL:BSCA:1,2016-11-03T16:00:00Z,30.3288,-87.8293,0.0,2.2,110.0,99.0,'11111222,11111222,11144222' 
DISL,ioos:station:DISL:BSCA:1,2016-11-03T16:30:00Z,30.3288,-87.8293,0.0,1.7,172.0,99.0,'11111222,11111222,11144222' 
DISL,ioos:station:DISL:BSCA:1,2016-11-03T17:00:00Z,30.3288,-87.8293,0.0,2.1,178.0,99.0,'11111222,11111222,11144222' 
DISL,ioos:station:DISL:BSCA:1,2016-11-03T17:30:00Z,30.3288,-87.8293,0.0,2.5,182.0,99.0,'11111222,11111222,11144222' 
DISL,ioos:station:DISL:BSCA:1,2016-11-03T18:00:00Z,30.3288,-87.8293,0.0,3.4,188.0,99.0,'11111222,11111222,11144222' 
DISL,ioos:station:DISL:BSCA:1,2016-11-03T18:30:00Z,30.3288,-87.8293,0.0,3.7,171.0,99.0,'11111222,11111222,11144222' 
DISL,ioos:station:DISL:BSCA:1,2016-11-03T19:00:00Z,30.3288,-87.8293,0.0,2.7,119.0,99.0,'11111222,11111222,11144222' 
DISL,ioos:station:DISL:BSCA:1,2016-11-03T19:30:00Z,30.3288,-87.8293,0.0,1.6,156.0,99.0,'11111222,11111222,11144222' 
DISL,ioos:station:DISL:BSCA:1,2016-11-03T20:00:00Z,30.3288,-87.8293,0.0,3.6,167.0,99.0,'11111222,11111222,11144222' 
DISL,ioos:station:DISL:BSCA:1,2016-11-03T20:30:00Z,30.3288,-87.8293,0.0,2.8,175.0,99.0,'11111222,11111222,11144222' 
DISL,ioos:station:DISL:BSCA:1,2016-11-03T21:00:00Z,30.3288,-87.8293,0.0,2.7,181.0,99.0,'11111222,11111222,11144222' 
DISL,ioos:station:DISL:BSCA:1,2016-11-03T21:30:00Z,30.3288,-87.8293,0.0,2.6,169.0,99.0,'11111222,11111222,11144222' 
DISL,ioos:station:DISL:BSCA:1,2016-11-03T22:00:00Z,30.3288,-87.8293,0.0,3.2,182.0,99.0,'11111222,11111222,11144222' 
DISL,ioos:station:DISL:BSCA:1,2016-11-03T22:30:00Z,30.3288,-87.8293,0.0,3.3,201.0,99.0,'11111222,11111222,11144222' 
DISL,ioos:station:DISL:BSCA:1,2016-11-03T23:00:00Z,30.3288,-87.8293,0.0,2.8,187.0,99.0,'11111222,11111222,11144222' 
DISL,ioos:station:DISL:BSCA:1,2016-11-03T23:30:00Z,30.3288,-87.8293,0.0,2.5,217.0,99.0,'11111222,11111222,11144222' 
DISL,ioos:station:DISL:BSCA:1,2016-11-04T00:00:00Z,30.3288,-87.8293,0.0,2.5,231.0,99.0,'11111222,11111222,11144222' 
DISL,ioos:station:DISL:BSCA:1,2016-11-04T00:30:00Z,30.3288,-87.8293,0.0,2.3,248.0,99.0,'11111222,11111222,11144222' 
DISL,ioos:station:DISL:BSCA:1,2016-11-04T01:00:00Z,30.3288,-87.8293,0.0,2.5,250.0,99.0,'11111222,11111222,11144222' 
DISL,ioos:station:DISL:BSCA:1,2016-11-04T01:30:00Z,30.3288,-87.8293,0.0,2.0,276.0,99.0,'11111222,11111222,11144222' 
DISL,ioos:station:DISL:BSCA:1,2016-11-04T02:00:00Z,30.3288,-87.8293,0.0,2.8,283.0,99.0,'11111222,11111222,11144222' 
DISL,ioos:station:DISL:BSCA:1,2016-11-04T02:30:00Z,30.3288,-87.8293,0.0,2.8,281.0,99.0,'11111222,11111222,11144222' 
DISL,ioos:station:DISL:BSCA:1,2016-11-04T03:00:00Z,30.3288,-87.8293,0.0,2.7,264.0,99.0,'11111222,11111222,11144222' 
DISL,ioos:station:DISL:BSCA:1,2016-11-04T03:30:00Z,30.3288,-87.8293,0.0,2.4,268.0,99.0,'11111222,11111222,11144222' 
DISL,ioos:station:DISL:BSCA:1,2016-11-04T06:30:00Z,30.3288,-87.8293,0.0,4.2,311.0,99.0,'11111222,11111222,11144222' 
DISL,ioos:station:DISL:BSCA:1,2016-11-04T07:00:00Z,30.3288,-87.8293,0.0,4.2,304.0,99.0,'11111222,11111222,11144222' 
DISL,ioos:station:DISL:BSCA:1,2016-11-04T07:30:00Z,30.3288,-87.8293,0.0,4.7,313.0,99.0,'11111222,11111222,11144222' 
DISL,ioos:station:DISL:BSCA:1,2016-11-04T08:00:00Z,30.3288,-87.8293,0.0,4.6,316.0,99.0,'11111222,11111222,11144222' 
DISL,ioos:station:DISL:BSCA:1,2016-11-04T08:30:00Z,30.3288,-87.8293,0.0,4.6,321.0,99.0,'11111222,11111222,11144222' 
DISL,ioos:station:DISL:BSCA:1,2016-11-04T09:00:00Z,30.3288,-87.8293,0.0,4.7,338.0,99.0,'11111222,11111222,11144222' 
DISL,ioos:station:DISL:BSCA:1,2016-11-04T09:30:00Z,30.3288,-87.8293,0.0,4.3,332.0,99.0,'11111222,11111222,11144222' 
DISL,ioos:station:DISL:BSCA:1,2016-11-04T10:00:00Z,30.3288,-87.8293,0.0,4.8,333.0,99.0,'11111222,11111222,11144222' 
DISL,ioos:station:DISL:BSCA:1,2016-11-04T10:30:00Z,30.3288,-87.8293,0.0,4.7,337.0,99.0,'11111222,11111222,11144222' 
DISL,ioos:station:DISL:BSCA:1,2016-11-04T11:00:00Z,30.3288,-87.8293,0.0,4.9,332.0,99.0,'11111222,11111222,11144222' 
DISL,ioos:station:DISL:BSCA:1,2016-11-04T11:30:00Z,30.3288,-87.8293,0.0,4.7,340.0,99.0,'11111222,11111222,11144222' 
DISL,ioos:station:DISL:BSCA:1,2016-11-04T12:00:00Z,30.3288,-87.8293,0.0,3.4,350.0,99.0,'11111222,11111222,11144222' 
DISL,ioos:station:DISL:BSCA:1,2016-11-04T12:30:00Z,30.3288,-87.8293,0.0,4.3,1.0,99.0,'11111222,11111222,11144222' 
DISL,ioos:station:DISL:BSCA:1,2016-11-04T13:00:00Z,30.3288,-87.8293,0.0,4.5,350.0,99.0,'11111222,11111222,11144222' 
DISL,ioos:station:DISL:BSCA:1,2016-11-04T13:30:00Z,30.3288,-87.8293,0.0,4.6,353.0,99.0,'11111222,11111222,11144222' 
DISL,ioos:station:DISL:BSCA:1,2016-11-04T14:00:00Z,30.3288,-87.8293,0.0,4.6,359.0,99.0,'11111222,11111222,11144222' 
DISL,ioos:station:DISL:BSCA:1,2016-11-04T14:30:00Z,30.3288,-87.8293,0.0,2.8,356.0,99.0,'11111222,11111222,11144222' 
DISL,ioos:station:DISL:BSCA:1,2016-11-04T15:00:00Z,30.3288,-87.8293,0.0,2.3,332.0,99.0,'11111222,11111222,11144222' 
DISL,ioos:station:DISL:BSCA:1,2016-11-04T15:30:00Z,30.3288,-87.8293,0.0,2.2,347.0,99.0,'11111222,11111222,11144222' 
DISL,ioos:station:DISL:BSCA:1,2016-11-04T16:00:00Z,30.3288,-87.8293,0.0,1.7,333.0,99.0,'11111222,11111222,11144222' 
DISL,ioos:station:DISL:BSCA:1,2016-11-04T16:30:00Z,30.3288,-87.8293,0.0,3.6,300.0,99.0,'11111222,11111222,11144222' 
DISL,ioos:station:DISL:BSCA:1,2016-11-04T17:00:00Z,30.3288,-87.8293,0.0,3.8,288.0,99.0,'11111222,11111222,11144222' 
DISL,ioos:station:DISL:BSCA:1,2016-11-04T17:30:00Z,30.3288,-87.8293,0.0,4.8,293.0,99.0,'11111222,11111222,11144222' 
DISL,ioos:station:DISL:BSCA:1,2016-11-04T18:00:00Z,30.3288,-87.8293,0.0,7.0,310.0,99.0,'11111222,11111222,11144222' 
DISL,ioos:station:DISL:BSCA:1,2016-11-04T18:30:00Z,30.3288,-87.8293,0.0,6.2,313.0,99.0,'11111222,11111222,11144222' 
DISL,ioos:station:DISL:BSCA:1,2016-11-04T19:00:00Z,30.3288,-87.8293,0.0,5.7,312.0,99.0,'11111222,11111222,11144222' 
DISL,ioos:station:DISL:BSCA:1,2016-11-04T19:30:00Z,30.3288,-87.8293,0.0,5.3,334.0,99.0,'11111222,11111222,11144222' 
DISL,ioos:station:DISL:BSCA:1,2016-11-04T20:00:00Z,30.3288,-87.8293,0.0,6.3,316.0,99.0,'11111222,11111222,11144222' 
DISL,ioos:station:DISL:BSCA:1,2016-11-04T20:30:00Z,30.3288,-87.8293,0.0,6.5,315.0,99.0,'11111222,11111222,11144222' 
DISL,ioos:station:DISL:BSCA:1,2016-11-04T21:00:00Z,30.3288,-87.8293,0.0,6.5,315.0,99.0,'11111222,11111222,11144222' 
DISL,ioos:station:DISL:BSCA:1,2016-11-04T21:30:00Z,30.3288,-87.8293,0.0,6.8,335.0,99.0,'11111222,11111222,11144222' 
DISL,ioos:station:DISL:BSCA:1,2016-11-04T22:00:00Z,30.3288,-87.8293,0.0,7.2,359.0,99.0,'11111222,11111222,11144222' 
DISL,ioos:station:DISL:BSCA:1,2016-11-04T22:30:00Z,30.3288,-87.8293,0.0,6.1,357.0,99.0,'11111222,11111222,11144222' 
DISL,ioos:station:DISL:BSCA:1,2016-11-04T23:00:00Z,30.3288,-87.8293,0.0,4.9,357.0,99.0,'11111222,11111222,11144222' 
DISL,ioos:station:DISL:BSCA:1,2016-11-04T23:30:00Z,30.3288,-87.8293,0.0,2.5,308.0,99.0,'11111222,11111222,11144222' 
DISL,ioos:station:DISL:BSCA:1,2016-11-05T00:00:00Z,30.3288,-87.8293,0.0,0.9,273.0,99.0,'11111222,11111222,11144222' 
DISL,ioos:station:DISL:BSCA:1,2016-11-05T00:30:00Z,30.3288,-87.8293,0.0,0.9,273.0,99.0,'11111222,11111222,11144222' 
DISL,ioos:station:DISL:BSCA:1,2016-11-05T01:00:00Z,30.3288,-87.8293,0.0,0.8,273.0,99.0,'11111222,11111222,11144222' 
DISL,ioos:station:DISL:BSCA:1,2016-11-05T01:30:00Z,30.3288,-87.8293,0.0,1.2,296.0,99.0,'11111222,11111222,11144222' 
DISL,ioos:station:DISL:BSCA:1,2016-11-05T02:00:00Z,30.3288,-87.8293,0.0,2.0,321.0,99.0,'11111222,11111222,11144222' 
DISL,ioos:station:DISL:BSCA:1,2016-11-05T02:30:00Z,30.3288,-87.8293,0.0,3.3,326.0,99.0,'11111222,11111222,11144222' 
DISL,ioos:station:DISL:BSCA:1,2016-11-05T03:00:00Z,30.3288,-87.8293,0.0,5.8,3.0,99.0,'11111222,11111222,11144222' 
DISL,ioos:station:DISL:BSCA:1,2016-11-05T03:30:00Z,30.3288,-87.8293,0.0,4.9,360.0,99.0,'11111222,11144222,11144222' 
DISL,ioos:station:DISL:BSCA:1,2016-11-05T04:00:00Z,30.3288,-87.8293,0.0,3.2,349.0,99.0,'11111222,11111222,11144222' 
DISL,ioos:station:DISL:BSCA:1,2016-11-05T04:30:00Z,30.3288,-87.8293,0.0,3.1,334.0,99.0,'11111222,11111222,11144222' 
DISL,ioos:station:DISL:BSCA:1,2016-11-05T05:00:00Z,30.3288,-87.8293,0.0,3.6,337.0,99.0,'11111222,11111222,11144222' 
DISL,ioos:station:DISL:BSCA:1,2016-11-05T05:30:00Z,30.3288,-87.8293,0.0,5.1,31.0,99.0,'11111222,11111222,11144222' 
DISL,ioos:station:DISL:BSCA:1,2016-11-05T06:00:00Z,30.3288,-87.8293,0.0,5.1,37.0,99.0,'11111222,11111222,11144222' 
DISL,ioos:station:DISL:BSCA:1,2016-11-05T06:30:00Z,30.3288,-87.8293,0.0,5.8,33.0,99.0,'11111222,11111222,11144222' 
DISL,ioos:station:DISL:BSCA:1,2016-11-05T07:00:00Z,30.3288,-87.8293,0.0,6.0,35.0,99.0,'11111222,11111222,11144222' 
DISL,ioos:station:DISL:BSCA:1,2016-11-05T07:30:00Z,30.3288,-87.8293,0.0,5.9,34.0,99.0,'11111222,11111222,11144222' 
DISL,ioos:station:DISL:BSCA:1,2016-11-05T08:00:00Z,30.3288,-87.8293,0.0,6.2,45.0,99.0,'11111222,11111222,11144222' 
DISL,ioos:station:DISL:BSCA:1,2016-11-05T08:30:00Z,30.3288,-87.8293,0.0,6.4,45.0,99.0,'11111222,11111222,11144222' 
DISL,ioos:station:DISL:BSCA:1,2016-11-05T09:00:00Z,30.3288,-87.8293,0.0,6.8,54.0,99.0,'11111222,11111222,11144222' 